Weather Roundup
Issued by NWS

Home | Current Version | Previous Version | Graphics & Text | Print | Product List | Glossary Off
Versions: 1 2 3 4 5 6 7 8 9 10 11 12 13 14 15 16 17 18 19 20 21 22 23 24 25 26 27 28 29 30 31 32 33 34 35 36 37 38 39 40 41 42 43 44 45 46 47 48 49 50

226
NZUS93 KARX 160910
HRRWXR

CURRENT HOURLY OBSERVATIONS ACROSS
MUCH OF THE UPPER MISSISSIPPI VALLEY
NATIONAL WEATHER SERVICE LA CROSSE WI
400 AM CDT MON OCT 16 2017


...SOUTHEAST MINNESOTA...


CITY           SKY/WX    TMP DP  RH WIND       PRES   REMARKS
ROCHESTER      CLEAR     37  34  89 W9        30.24R WCI  30
ROCHESTER/MAYO FAIR      41  36  80 CALM      30.24S
WINONA         CLEAR     37  37 100 CALM      30.24S
AUSTIN         CLEAR     37  34  87 CALM      30.25R
ALBERT LEA     CLEAR     39  39 100 CALM      30.25S
DODGE CENTER   CLEAR     34  32  93 SW5       30.24S WCI  30
PRESTON        CLEAR     38  33  82 W5        30.24S WCI  35
OWATONNA       CLEAR     37  36  93 S3        30.24S
FARIBAULT      CLEAR     36  34  93 CALM      30.24S
$$

...ELSEWHERE IN MINNESOTA...


CITY           SKY/WX    TMP DP  RH WIND       PRES   REMARKS
MINNEAPOLIS    CLEAR     42  39  89 CALM      30.23R
INTNL FALLS    PTCLDY    30  26  85 SW6       30.08S WCI  24
DULUTH         CLEAR     34  34 100 W9        30.14R WCI  27
RED WING       PTCLDY    36  34  93 CALM      30.22S
REDWOOD FALLS  CLEAR     39  32  76 W6        30.24R WCI  35
MANKATO        CLEAR     37  35  92 SW5       30.25R WCI  33
WORTHINGTON    CLEAR     36  31  82 SW8       30.27S WCI  30
FAIRMONT       CLEAR     38  34  85 W3        30.26R
$$

...SOUTHWEST WISCONSIN...


CITY           SKY/WX    TMP DP  RH WIND       PRES   REMARKS
LA CROSSE      CLEAR     41  39  93 SE6       30.23S
PRAIRIE DU CHI CLEAR     39  36  88 CALM      30.25S
BOSCOBEL       PTCLDY    37  35  92 CALM      30.25S FOG
LONE ROCK      CLEAR     38  38 100 CALM      30.25R
PLATTEVILLE    CLEAR     39  39 100 S6        30.25S WCI  35
FORT MC COY    PTCLDY    30  30 100 CALM      30.24S
CAMP DOUGLAS   FOG       32  32 100 CALM      30.22S VSB 3/4
MAUSTON-NEW LI SUNNY     35  35  99 CALM      30.22S
VIROQUA        FAIR      39  39 100 SW6       30.22S
WIS DELLS      PTCLDY    37  37  97 CALM      30.23S
$$

...ELSEWHERE IN WISCONSIN...


CITY           SKY/WX    TMP DP  RH WIND       PRES   REMARKS
MILWAUKEE      CLOUDY    46  41  82 W6        30.24S
MADISON        CLOUDY    42  40  92 CALM      30.24S
GREEN BAY      CLOUDY    40  40 100 W5        30.21R
EAU CLAIRE     CLEAR     37  36  96 SW5       30.21R WCI  33
BLACK RVR FLS  NOT AVBL
MEDFORD        CLEAR     34  33  95 CALM      30.19R
WAUSAU         CLEAR     38  36  92 NW3       30.19S
WIS RAPIDS     CLEAR     35  35 100 CALM      30.23R FOG
MARSHFIELD     CLEAR     36  33  89 W3        30.20S
RICE LAKE      PTCLDY    32  32 100 CALM      30.21S FOG
$$

...NORTHEAST IOWA...


CITY           SKY/WX    TMP DP  RH WIND       PRES   REMARKS
WATERLOO       CLEAR     36  33  89 W3        30.26S
DUBUQUE        CLEAR     36  35  96 SW6       30.25S WCI  31
DECORAH        CLEAR     39  36  87 CALM      30.23S
MASON CITY     CLEAR     34  32  92 CALM      30.27S
CHARLES CITY   CLEAR     37  36  93 W6        30.26S WCI  33
OELWEIN        CLEAR     36  36 100 W6        30.26F WCI  31
$$

...ELSEWHERE IN IOWA...


CITY           SKY/WX    TMP DP  RH WIND       PRES   REMARKS
DES MOINES     CLEAR     41  35  79 SW5       30.30S
IOWA CITY      CLEAR     38  34  85 CALM      30.30F
FORT DODGE     CLEAR     37  34  89 CALM      30.28S
MARSHALLTOWN   CLEAR     37  34  89 CALM      30.27F
CEDAR RAPIDS     N/A     39  34  82 W5        30.27S
$$

...NORTHERN ILLINOIS...


CITY           SKY/WX    TMP DP  RH WIND       PRES   REMARKS
CHICAGO-OHARE  PTCLDY    44  40  85 W6        30.26S
CHICAGO-MIDWAY PTCLDY    44  41  89 W5        30.26S
MOLINE         CLEAR     42  38  85 SW3       30.29S
ROCKFORD       CLOUDY    43  40  89 SW5       30.28S
PEORIA         CLEAR     40  38  93 SW3       30.31F
$$

NOTE: "FAIR" INDICATES FEW OR NO CLOUDS BELOW 12,000 FEET WITH NO
SIGNIFICANT WEATHER AND/OR OBSTRUCTIONS TO VISIBILITY. WIND
SPEEDS ARE IN MILES-PER-HOUR.




USA.gov is the U.S. government's official web portal to all federal, state and local government web resources and services.